Location: Bakov nad Jizerou
(50.4784°N, 14.9394°E)
Time: 15:24:19
(UTC+00:00)

Cosmos 1992 Rocket - Pass Details

Date: 16 June 2021
Orbit: 758 x 766 km, 74.0° (Epoch: 03 August)

Event Time Altitude Azimuth Distance (km) Brightness Sun altitude
Exits shadow 22:32:33 19° 210° (SSW) 1,769 5.4 -15.9°
Maximum altitude 22:36:22 77° 294° (WNW) 788 4.1 -15.9°
Drops below altitude 10° 22:41:38 10° 22° (NNE) 2,311 7.5 -16.0°
Sets 22:44:02 0° 24° (NNE) 3,243 8.4 -16.0°
